Vertical_Velocity
-3 -4 -3 3 2 2 3 0 -4 1 -2 -2 4 3 -1 0 4 3 -7 -17 -5 1 2 1 1 3 1 0 1 1 -4 -0 -3 0 -6 -1 -2 -0 2 -0 1 1 -2 -1 2
1 -1 -3 -4 -1 -1 1 -1 -0 -1 2 0 2 4 3 3 1 -2 -10 -0 -3 8 9 -2 -3 3 1 -0 2 -3 -1 -4 -3 -1 -1 -2 3 2 -2 -4 -4 -0 0 -1 0
-2 -6 -1 -2 -2 -2 -3 -4 2 -3 4 -1 1 7 8 3 4 -34 -6 -2 -8 8 7 6 4 3 2 3 1 0 -3 -2 -4 -3 5 -0 -3 2 1 -2 -2 -2 0 -1 0
-1 -1 3 0 -1 -2 2 3 2 -1 6 0 2 8 6 8 -10 5 -1 1 -7 6 5 8 6 2 1 -0 0 -1 -1 -0 -3 0 -1 -0 0 -3 5 -20 3 -1 1 0 -1
2 -4 -2 -3 1 0 -3 4 -3 -2 -1 2 0 4 11 5 -37 4 3 3 8 10 -1 1 1 -1 -2 -1 3 1 -2 2 -1 -0 -1 5 -4 -5 -6 -10 5 3 -1 -1 0
-2 2 -3 -3 -5 -6 -8 -1 1 4 1 2 1 10 8 5 -22 6 5 7 3 1 -4 8 -6 -3 -1 -1 -2 -2 1 -4 -4 -4 0 4 -6 7 -6 3 -2 3 -2 -2 -2
-1 -2 0 -1 0 2 -1 -2 3 4 1 -4 1 9 7 -40 -2 5 6 1 10 1 7 1 6 3 2 1 -2 -0 -0 -2 -2 -3 -4 3 -4 -2 -6 4 -4 1 -0 1 2
-2 -0 -2 -0 -5 -1 -2 -1 1 4 -1 -0 3 17 -8 -14 8 1 1 1 1 6 6 5 3 2 -1 4 -0 -1 -1 0 -5 0 -6 -2 -15 -9 0 0 -1 1 2 -1 -1
1 -1 -1 -1 -1 -0 1 1 -0 2 11 13 8 2 -8 -2 -11 -11 3 2 1 4 1 21 3 -0 2 -1 -1 -2 -2 1 -8 -0 0 -1 -4 -6 1 1 1 1 1 -1 -1
0 -1 -0 -0 0 4 1 -1 2 4 7 4 9 7 4 -11 3 -10 1 4 4 3 7 12 4 -0 1 0 -7 -2 0 -0 -1 -4 0 -1 -5 -5 -1 -0 0 0 1 0 2
-0 3 1 0 -4 2 -0 8 0 2 6 -3 -6 -5 3 -2 6 -1 0 4 10 8 2 8 1 -4 -4 -3 -2 -2 -0 -0 -2 -3 1 -2 -1 -5 -1 -0 1 1 0 1 0
-1 -0 0 -2 3 3 4 -4 -8 -11 1 -4 1 8 -1 11 4 6 9 -5 5 -3 4 4 -2 -6 -1 0 -1 0 -0 -3 -5 -1 -0 -1 -4 -3 -0 -2 -1 0 1 1 2
2 2 3 6 4 3 -9 -8 4 -7 -0 -3 -5 -0 -8 4 -1 -2 3 -1 -1 6 -0 -3 -2 1 0 1 0 -0 -1 -1 -3 -2 -1 -1 -5 -1 -0 0 1 2 1 1 1
2 3 6 4 19 -1 -6 6 3 8 1 3 2 -9 -5 -2 -2 -6 4 -14 4 -11 -1 -2 1 -2 1 -0 -3 2 -2 0 1 1 -4 -4 -8 -2 -1 1 0 2 2 1 1
2 -4 8 13 -19 -11 -11 -2 3 -9 7 9 6 6 1 -3 -4 20 -14 15 -5 -3 1 -3 1 3 2 -4 -2 -10 -1 -1 -0 0 0 -2 -1 -12 -0 0 -1 -1 2 2 2
3 -4 -1 15 3 4 7 9 -3 11 -1 3 -0 -1 3 2 2 8 2 11 -0 -0 2 0 -0 -0 -7 0 -2 -1 -2 -2 -1 -1 0 -5 -3 -8 -2 -7 1 1 2 2 -0
1 6 -1 6 14 12 -3 13 5 6 7 9 0 1 -1 1 5 1 2 5 -5 5 5 -1 -1 -0 -3 -1 1 -2 -1 -2 -4 -3 -7 -0 1 -13 -2 -2 -5 -3 -0 0 1
0 6 0 11 15 11 7 8 7 -2 -2 1 -1 5 -4 -4 3 3 4 2 3 0 -0 -3 4 -2 -0 -7 -10 -2 -6 -7 -5 -2 -4 -0 -4 -17 -1 -1 1 2 -1 2 0
0 2 -1 12 2 14 -4 3 -6 -1 -3 -2 10 3 7 4 -7 4 -0 -2 -3 -6 -9 -2 2 2 0 -0 -12 -2 -0 -7 -3 -1 -2 -4 -9 -3 -2 -1 3 2 2 -1 -1
0 2 3 5 3 7 7 0 -0 -1 -3 -0 -2 -1 -2 1 -4 -3 2 -4 1 -3 -2 -5 -3 -0 1 -1 -0 -10 -7 -8 -3 -1 -1 -4 -1 -6 -2 -1 1 2 -0 -0 3
-0 3 3 3 5 6 2 3 1 3 -2 1 -1 -0 -1 -4 -5 -0 -5 1 0 2 -1 -2 -10 -1 -1 -1 -4 -2 1 -2 -7 -4 -3 -1 -9 -3 -1 -2 -2 -1 -2 -2 2
-2 -1 2 1 4 -0 0 2 -0 -1 -1 -0 -4 -4 -2 -0 -0 1 -2 -2 1 -4 -1 -1 -4 -1 -4 -1 -2 -1 -3 -3 -6 -3 -1 -3 -13 0 -0 -1 -2 -2 4 2 3
-2 3 5 6 1 0 -0 1 -0 1 -1 1 0 -3 -1 -3 -2 -1 0 2 1 -1 -3 -3 -2 -1 -1 -7 -3 -0 0 -1 -1 -2 -2 -4 -11 -0 -1 0 2 -2 -4 -2 0
-2 -0 5 4 1 -3 -1 -0 -0 1 0 0 -1 -4 -2 -1 -1 -1 1 2 -0 -0 -1 -4 -0 -7 -11 -10 -5 1 1 0 -4 -1 -2 -5 -3 -1 0 0 1 0 2 4 3
-0 -3 1 -2 -1 -0 -2 -1 -0 1 -1 -2 -1 -1 -2 -1 1 0 0 2 0 2 -1 -3 -2 -1 1 -0 -0 -2 -1 0 -0 -3 -5 -4 -1 -1 -0 -0 -1 1 2 0 3
-1 0 2 -0 0 -1 -1 0 -1 -1 -3 3 -4 -1 -1 -1 1 -1 -4 -2 -4 2 -0 -1 -1 -1 -0 -0 -1 -0 0 0 -0 0 0 0 -2 -1 1 1 1 0 -1 -0 -0
0 0 3 -0 -0 -2 -1 0 -0 -2 0 0 -8 -7 -3 -1 1 3 2 -1 -2 -3 -0 -2 -2 -1 -1 -0 -1 -3 -6 -1 -1 -0 -4 -1 -3 0 0 0 -0 -1 -1 -2 0
Height
1471 1471 1472 1472 1473 1474 1475 1476 1478 1479 1479 1482 1485 1487 1488 1489 1488 1489 1487 1493 1500 1505 1508 1512 1514 1517 1519 1519 1520 1521 1530 1534 1525 1522 1511 1505 1505 1499 1498 1496 1494 1491 1491 1490 1489
1468 1468 1468 1468 1470 1471 1471 1473 1474 1475 1475 1478 1481 1483 1485 1486 1486 1483 1485 1490 1497 1502 1505 1507 1511 1515 1518 1518 1519 1519 1529 1522 1513 1511 1509 1505 1505 1502 1499 1495 1492 1491 1491 1489 1488
1465 1465 1465 1465 1465 1466 1467 1468 1470 1471 1473 1475 1478 1480 1482 1484 1485 1475 1482 1486 1492 1499 1503 1505 1509 1513 1516 1515 1515 1516 1520 1513 1510 1509 1507 1506 1503 1502 1499 1496 1493 1491 1488 1487 1487
1464 1462 1462 1462 1462 1463 1465 1465 1467 1469 1471 1472 1475 1477 1480 1482 1486 1474 1475 1481 1489 1495 1499 1503 1505 1510 1512 1513 1512 1516 1510 1509 1508 1507 1507 1505 1502 1499 1496 1491 1490 1489 1487 1485 1484
1462 1461 1460 1460 1461 1461 1461 1463 1464 1466 1468 1470 1473 1476 1477 1479 1474 1474 1473 1475 1486 1490 1494 1500 1502 1505 1509 1509 1511 1512 1508 1506 1505 1505 1504 1501 1498 1497 1490 1489 1488 1486 1484 1483 1482
1460 1459 1459 1458 1458 1459 1459 1461 1462 1464 1466 1468 1470 1474 1475 1474 1472 1474 1474 1473 1478 1485 1491 1497 1499 1502 1505 1506 1508 1506 1506 1505 1503 1500 1501 1499 1494 1493 1485 1485 1484 1483 1481 1480 1479
1457 1457 1456 1455 1455 1456 1457 1458 1459 1462 1464 1466 1468 1471 1471 1466 1469 1472 1474 1474 1476 1482 1489 1494 1497 1502 1503 1504 1504 1504 1508 1504 1500 1497 1496 1495 1493 1487 1481 1483 1480 1476 1476 1477 1477
1455 1453 1453 1452 1452 1452 1454 1456 1457 1458 1461 1464 1466 1469 1466 1464 1468 1469 1471 1473 1474 1480 1488 1493 1497 1499 1501 1501 1502 1505 1508 1512 1498 1495 1491 1493 1491 1480 1480 1482 1477 1472 1472 1473 1475
1452 1450 1449 1448 1448 1449 1451 1453 1455 1457 1459 1462 1464 1466 1465 1462 1462 1466 1470 1473 1475 1480 1487 1493 1495 1498 1500 1501 1509 1509 1516 1513 1505 1492 1492 1491 1490 1473 1478 1479 1475 1472 1472 1473 1474
1448 1446 1445 1444 1445 1446 1447 1451 1453 1455 1457 1459 1461 1468 1460 1455 1457 1462 1468 1472 1475 1480 1486 1489 1492 1494 1498 1503 1504 1511 1511 1511 1509 1494 1494 1494 1488 1475 1477 1478 1475 1473 1472 1474 1475
1443 1442 1440 1440 1440 1442 1446 1449 1455 1456 1454 1452 1453 1452 1449 1453 1456 1459 1466 1471 1475 1480 1480 1475 1484 1488 1495 1492 1498 1500 1505 1506 1500 1493 1496 1492 1486 1477 1474 1475 1475 1473 1473 1475 1476
1439 1436 1433 1433 1433 1435 1440 1442 1445 1447 1452 1452 1452 1452 1451 1452 1454 1457 1462 1468 1470 1470 1468 1471 1478 1485 1490 1494 1496 1498 1504 1507 1498 1490 1493 1487 1487 1476 1473 1474 1473 1472 1473 1475 1476
1435 1431 1428 1428 1429 1431 1434 1439 1442 1445 1447 1449 1449 1449 1451 1453 1452 1453 1458 1463 1466 1470 1469 1474 1478 1480 1486 1491 1497 1500 1504 1505 1505 1494 1489 1487 1487 1477 1472 1472 1473 1474 1474 1475 1476
1431 1428 1425 1425 1429 1428 1431 1437 1442 1443 1446 1443 1445 1444 1447 1450 1451 1450 1456 1462 1465 1467 1472 1475 1476 1480 1486 1490 1494 1504 1496 1499 1501 1504 1507 1492 1508 1482 1473 1473 1474 1473 1472 1475 1476
1428 1425 1421 1422 1421 1424 1426 1433 1441 1448 1435 1434 1438 1439 1440 1446 1445 1450 1453 1461 1459 1461 1474 1470 1475 1481 1482 1486 1487 1493 1491 1497 1498 1502 1503 1498 1507 1482 1474 1476 1473 1472 1472 1473 1474
1425 1421 1418 1417 1414 1418 1423 1429 1441 1443 1423 1425 1428 1433 1438 1441 1441 1448 1453 1457 1459 1467 1470 1469 1473 1473 1471 1478 1483 1485 1494 1499 1504 1507 1515 1499 1499 1481 1476 1463 1468 1469 1471 1471 1473
1420 1418 1414 1414 1411 1416 1423 1429 1438 1425 1419 1416 1421 1427 1434 1437 1442 1442 1449 1451 1450 1466 1466 1469 1472 1470 1470 1479 1482 1489 1498 1516 1517 1517 1512 1494 1500 1469 1458 1458 1456 1461 1466 1469 1473
1414 1411 1408 1407 1410 1411 1418 1424 1417 1402 1409 1407 1413 1426 1435 1435 1437 1442 1450 1450 1448 1448 1463 1480 1485 1467 1465 1471 1481 1487 1488 1506 1512 1518 1505 1498 1495 1467 1455 1452 1452 1456 1463 1469 1472
1408 1405 1402 1402 1402 1409 1414 1419 1400 1396 1398 1401 1415 1420 1422 1428 1428 1440 1444 1443 1437 1439 1453 1471 1467 1462 1464 1465 1469 1483 1489 1485 1495 1501 1508 1493 1475 1458 1456 1454 1452 1456 1462 1467 1471
1404 1402 1400 1399 1399 1405 1405 1393 1394 1395 1397 1402 1410 1411 1416 1422 1428 1436 1446 1438 1436 1438 1440 1453 1467 1463 1463 1463 1467 1470 1475 1492 1502 1502 1501 1492 1483 1470 1458 1459 1458 1458 1461 1466 1470
1402 1400 1399 1400 1401 1402 1397 1395 1395 1396 1397 1398 1402 1408 1410 1419 1428 1438 1438 1433 1430 1437 1439 1446 1455 1469 1464 1467 1471 1475 1480 1485 1489 1498 1500 1501 1483 1461 1456 1456 1457 1457 1460 1464 1468
1401 1401 1399 1400 1402 1398 1397 1396 1398 1398 1398 1399 1400 1406 1406 1414 1426 1428 1428 1427 1428 1434 1441 1442 1457 1473 1468 1463 1464 1466 1472 1478 1492 1492 1501 1502 1484 1458 1456 1452 1456 1459 1463 1467 1470
1401 1400 1401 1401 1398 1399 1401 1401 1401 1399 1397 1396 1398 1402 1406 1414 1427 1425 1426 1430 1429 1431 1435 1440 1458 1476 1470 1469 1466 1466 1468 1471 1478 1484 1493 1494 1480 1458 1454 1455 1459 1463 1466 1468 1469
1401 1400 1400 1400 1395 1393 1399 1401 1399 1398 1398 1397 1400 1401 1408 1414 1416 1426 1427 1430 1431 1433 1437 1439 1452 1457 1463 1461 1462 1467 1465 1468 1470 1486 1484 1484 1469 1460 1461 1460 1461 1463 1464 1464 1465
1400 1398 1396 1398 1393 1392 1393 1398 1399 1397 1400 1400 1405 1407 1408 1416 1419 1426 1427 1431 1431 1433 1438 1439 1448 1449 1453 1452 1453 1456 1459 1465 1468 1468 1473 1465 1471 1461 1460 1461 1460 1460 1461 1461 1463
1398 1399 1396 1395 1393 1392 1394 1400 1401 1402 1404 1410 1412 1410 1407 1412 1417 1421 1423 1426 1429 1435 1437 1438 1451 1448 1457 1454 1452 1454 1455 1461 1462 1463 1466 1465 1467 1459 1460 1459 1460 1462 1462 1463 1464
1396 1397 1397 1397 1396 1396 1396 1399 1401 1402 1406 1407 1413 1416 1421 1418 1418 1417 1418 1424 1427 1432 1438 1441 1448 1455 1458 1458 1456 1462 1456 1457 1458 1458 1458 1464 1459 1459 1462 1462 1462 1462 1463 1463 1465